Location: Tel Aviv
(32.0670°N, 34.7670°E)
Time: 01:58:17
(UTC+03:00)

Tiros 1 - Pass Details

Date: 26 January 2022
Orbit: 629 x 663 km, 48.4° (Epoch: 26 May)

Event Time Altitude Azimuth Distance (km) Brightness Sun altitude
Enters shadow 20:27:15 - 218° (SW) 3,013 11.0 -41.9°
Rises 20:27:21 0° 218° (SW) 2,973 - -42.0°
Reaches altitude 10° 20:29:43 10° 214° (SW) 2,067 - -42.5°
Maximum altitude 20:34:24 57° 136° (SE) 779 - -43.5°
Drops below altitude 10° 20:39:06 10° 58° (ENE) 2,078 - -44.4°
Sets 20:41:29 0° 54° (NE) 2,992 - -44.9°
